GW1020 Weather Reports


time (UTC)temp
F
wind
direction
speed
knots
gust
knots
rain 1hr
in
rain 24hr
in
rain mn
in
humidity
%
barometer
mb
20260506044204 49 174 0.9 1.7 0.00 0.20 0.01 91 1006.8
20260506043704 49 174 0.0 1.7 0.00 0.20 0.01 92 1006.8
20260506043204 49 173 0.0 1.7 0.00 0.20 0.01 92 1006.9
20260506042704 49 174 0.0 1.7 0.00 0.20 0.01 91 1006.8
20260506042204 49 174 0.0 1.7 0.00 0.20 0.01 91 1006.8
20260506041704 49 174 0.0 2.6 0.00 0.20 0.01 92 1006.9
20260506040704 49 174 0.9 4.3 0.00 0.20 0.01 92 1007.0
20260506040205 49 173 1.7 4.3 0.00 0.20 0.01 91 1007.0
20260506035705 49 174 1.7 3.5 0.00 0.20 0.01 91 1007.0
20260506035204 49 186 0.0 2.6 0.00 0.20 0.01 91 1007.1
20260506034705 49 186 0.0 2.6 0.00 0.20 0.01 91 1007.1
20260506034205 49 187 0.0 0.0 0.00 0.20 0.01 91 1007.1
20260506033705 49 186 0.0 0.0 0.00 0.20 0.01 91 1007.1
20260506032705 49 186 0.0 0.0 0.00 0.20 0.01 90 1007.1
20260506032205 50 186 0.0 0.0 0.00 0.20 0.01 90 1007.0
20260506031704 50 187 0.0 0.0 0.00 0.20 0.01 90 1007.0
20260506031205 50 186 0.0 0.0 0.00 0.20 0.01 90 1006.9
20260506030705 51 186 0.0 0.0 0.00 0.20 0.01 89 1006.9
20260506030205 51 186 0.0 0.0 0.00 0.20 0.01 89 1006.9
20260506025705 51 187 0.0 0.0 0.00 0.20 0.01 89 1006.9
20260506025204 51 186 0.0 2.6 0.00 0.20 0.01 89 1007.0
20260506024704 52 186 0.9 3.5 0.00 0.20 0.01 88 1007.1
20260506024204 52 186 0.9 4.3 0.00 0.20 0.01 88 1007.0
20260506023704 52 187 1.7 4.3 0.00 0.20 0.01 89 1007.2
20260506023204 52 187 1.7 4.3 0.00 0.20 0.01 89 1007.4
20260506022705 51 187 1.7 4.3 0.00 0.20 0.01 90 1007.6
20260506022204 51 187 1.7 4.3 0.00 0.20 0.01 90 1007.7
20260506021725 51 187 1.7 3.5 0.00 0.20 0.01 90 1007.6
20260506021204 51 186 1.7 3.5 0.00 0.20 0.01 90 1007.5
20260506020705 51 186 1.7 3.5 0.00 0.20 0.01 91 1007.5
20260506020205 51 186 1.7 3.5 0.00 0.20 0.01 91 1007.6
20260506015705 51 186 0.9 4.3 0.00 0.20 0.01 91 1007.6
20260506015204 51 186 1.7 4.3 0.00 0.20 0.01 91 1007.6
20260506014705 51 186 1.7 4.3 0.00 0.20 0.01 92 1007.6
20260506013705 50 201 0.9 2.6 0.00 0.20 0.01 92 1007.6
20260506013204 50 201 0.9 2.6 0.00 0.20 0.01 92 1007.4
20260506012705 50 201 0.9 2.6 0.00 0.20 0.01 91 1007.5
20260506012205 50 201 0.0 2.6 0.00 0.20 0.01 91 1007.5
20260506011705 50 202 0.0 0.0 0.00 0.20 0.01 91 1007.5
20260506011205 50 202 0.0 0.0 0.00 0.20 0.01 91 1007.6
20260506010705 51 201 0.0 0.0 0.00 0.20 0.01 91 1007.5
20260506010205 51 201 0.0 1.7 0.00 0.20 0.01 91 1007.5
20260506005705 51 201 0.0 1.7 0.00 0.20 0.01 90 1007.6
20260506005205 51 202 0.0 1.7 0.00 0.20 0.01 90 1007.5
20260506004705 51 201 0.0 0.0 0.00 0.20 0.01 90 1007.6
20260506004206 52 201 0.0 0.0 0.01 0.20 0.01 90 1007.8
20260506003705 52 201 0.0 1.7 0.01 0.20 0.01 90 1007.7
20260506003205 52 201 0.0 1.7 0.01 0.20 0.01 89 1007.7
20260506002705 53 201 0.0 3.5 0.01 0.20 0.01 89 1007.7
20260506001705 53 201 0.9 2.6 0.01 0.20 0.01 90 1007.9
20260506001205 53 200 0.9 2.6 0.01 0.20 0.01 90 1007.9
20260506000705 53 201 0.9 2.6 0.01 0.20 0.01 90 1008.0
20260506000205 53 201 0.9 2.6 0.01 0.20 0.01 90 1008.1
20260505235705 53 201 0.9 5.2 0.01 0.20 0.01 90 1008.1
20260505235204 53 201 0.9 5.2 0.01 0.20 0.01 90 1008.2
20260505234705 53 201 0.9 5.2 0.00 0.19 0.00 90 1008.3
20260505234205 53 213 0.9 3.5 0.00 0.19 0.00 90 1008.3
20260505233205 53 208 0.9 4.3 0.00 0.19 0.00 91 1008.3
20260505232722 53 211 1.7 4.3 0.00 0.19 0.00 90 1008.3
20260505232205 53 198 0.9 4.3 0.00 0.19 0.00 90 1008.3
20260505231705 53 213 0.9 4.3 0.00 0.19 0.00 90 1008.2
20260505231205 53 213 1.7 4.3 0.00 0.19 0.00 90 1008.3
20260505230723 53 213 1.7 4.3 0.00 0.19 0.00 90 1008.3
20260505230204 53 213 1.7 4.3 0.00 0.19 0.00 90 1008.2
20260505225204 54 213 0.9 3.5 0.00 0.19 0.00 90 1008.3
20260505224220 54 229 0.0 2.6 0.00 0.19 0.00 91 1008.3
20260505223705 54 228 0.0 2.6 0.00 0.19 0.00 91 1008.2
20260505223205 54 227 0.9 2.6 0.00 0.19 0.00 91 1008.2
20260505222704 54 228 0.9 2.6 0.00 0.19 0.00 91 1008.2
20260505221705 54 228 0.0 1.7 0.00 0.19 0.00 91 1008.1
20260505221231 54 228 0.0 2.6 0.00 0.19 0.00 91 1008.0
20260505220705 54 228 0.9 2.6 0.00 0.19 0.00 91 1008.1
20260505220205 54 228 1.7 2.6 0.00 0.19 0.19 91 1008.2
20260505215705 54 229 1.7 2.6 0.00 0.19 0.19 92 1008.2
20260505215205 54 228 0.9 2.6 0.00 0.19 0.19 92 1008.3
20260505213705 54 228 0.0 0.0 0.00 0.19 0.19 92 1008.4
20260505213205 54 228 0.0 0.0 0.00 0.19 0.19 91 1008.4
20260505212205 54 228 0.0 0.9 0.00 0.19 0.19 91 1008.4
20260505211705 54 228 0.0 1.7 0.00 0.19 0.19 91 1008.4
20260505211205 54 228 0.0 1.7 0.00 0.19 0.19 91 1008.3
20260505210705 54 228 0.0 1.7 0.00 0.19 0.19 91 1008.3
20260505205705 54 228 0.0 3.5 0.00 0.19 0.19 91 1008.3
20260505205205 54 228 0.9 3.5 0.00 0.19 0.19 91 1008.2
20260505204705 55 228 1.7 5.2 0.00 0.19 0.19 91 1008.2
20260505204205 55 228 1.7 5.2 0.00 0.19 0.19 90 1008.2
20260505203705 55 228 1.7 5.2 0.00 0.19 0.19 90 1008.2
20260505203205 55 240 1.7 4.3 0.00 0.19 0.19 90 1008.2
20260505202705 56 240 1.7 5.2 0.00 0.19 0.19 90 1008.2
20260505202204 56 240 1.7 5.2 0.00 0.19 0.19 90 1008.1
20260505201705 56 240 1.7 5.2 0.00 0.19 0.19 90 1008.1
20260505201205 56 254 1.7 4.3 0.00 0.19 0.19 90 1007.9
20260505200705 56 247 1.7 4.3 0.00 0.19 0.19 90 1007.9
20260505200205 56 248 1.7 4.3 0.00 0.19 0.19 90 1007.8
20260505195204 56 206 0.9 4.3 0.00 0.19 0.19 91 1007.8
20260505194705 56 197 0.9 1.7 0.00 0.19 0.19 91 1007.7
20260505194205 56 180 0.0 1.7 0.00 0.19 0.19 91 1007.6
20260505193709 56 180 0.0 1.7 0.00 0.19 0.19 91 1007.5
20260505193205 57 180 0.9 2.6 0.00 0.19 0.19 91 1007.6
20260505192705 57 180 0.9 2.6 0.00 0.19 0.19 91 1007.6
20260505192204 57 180 0.9 2.6 0.00 0.19 0.19 91 1007.5
20260505191705 57 180 0.9 1.7 0.00 0.19 0.19 91 1007.5
20260505191205 57 180 0.0 2.6 0.01 0.19 0.19 91 1007.5
20260505190705 57 180 0.0 2.6 0.01 0.19 0.19 90 1007.5
20260505190205 57 180 0.9 2.6 0.02 0.19 0.19 90 1007.4
20260505185205 57 180 0.0 1.7 0.03 0.19 0.19 91 1007.5
20260505184705 57 180 0.0 1.7 0.04 0.19 0.19 90 1007.5
20260505184205 57 180 0.0 1.7 0.04 0.19 0.19 90 1007.5
20260505183704 57 180 0.0 0.9 0.04 0.19 0.19 90 1007.5
20260505182704 58 180 0.0 2.6 0.04 0.19 0.19 90 1007.4
20260505181705 58 180 0.9 2.6 0.04 0.19 0.18 89 1007.2
20260505181204 58 230 0.0 0.0 0.03 0.18 0.18 89 1007.2
20260505180205 58 230 0.0 0.9 0.02 0.17 0.17 88 1007.2
20260505175205 58 231 0.0 1.7 0.01 0.16 0.16 88 1007.2
20260505174705 58 230 0.0 2.6 0.00 0.15 0.15 88 1007.3
20260505174205 58 230 0.9 3.5 0.00 0.15 0.15 88 1007.6
20260505173705 58 230 0.9 3.5 0.00 0.15 0.15 87 1007.7
20260505173205 58 230 0.9 3.5 0.00 0.15 0.15 87 1007.7
20260505172705 58 231 0.9 2.6 0.00 0.15 0.15 87 1007.6
20260505172205 58 231 0.9 2.6 0.00 0.15 0.15 86 1007.5
20260505171704 59 203 0.9 4.3 0.00 0.15 0.15 86 1007.6
20260505171205 59 67 0.9 4.3 0.00 0.15 0.15 86 1007.5
20260505170705 59 65 0.9 4.3 0.00 0.15 0.15 85 1007.4
20260505170204 59 65 0.9 1.7 0.00 0.15 0.15 84 1007.3
20260505165704 59 64 0.0 1.7 0.00 0.15 0.15 85 1007.2
20260505165204 59 64 0.0 2.6 0.00 0.15 0.15 83 1007.2
20260505164704 59 64 0.0 2.6 0.00 0.15 0.15 85 1007.2
20260505164205 59 64 0.0 2.6 0.00 0.15 0.15 85 1007.2
20260505163705 59 65 0.9 2.6 0.00 0.15 0.15 83 1007.2
20260505163204 59 64 0.9 2.6 0.00 0.15 0.15 83 1007.2
20260505162705 60 59 0.0 2.6 0.00 0.15 0.15 84 1007.3
20260505162205 60 57 0.9 2.6 0.01 0.15 0.15 82 1007.3
20260505161705 60 57 0.9 2.6 0.01 0.15 0.15 84 1007.2
20260505161204 60 57 0.0 4.3 0.02 0.15 0.15 85 1007.3
20260505160205 60 54 0.9 5.2 0.02 0.15 0.15 87 1007.2
20260505153204 58 294 0.0 0.0 0.02 0.15 0.15 86 1007.7
20260505152705 58 294 0.0 0.9 0.02 0.14 0.14 88 1007.8
20260505152205 58 294 0.0 0.9 0.02 0.14 0.14 88 1007.8
20260505151205 57 294 0.0 0.9 0.02 0.13 0.13 87 1007.8
20260505150705 58 294 0.0 0.9 0.03 0.13 0.13 88 1007.7
20260505150205 58 294 0.0 0.9 0.04 0.13 0.13 88 1007.8
20260505130205 62 303 9.6 20.9 0.00 0.00 0.00 76 1007.9
20260505124704 68 255 2.6 5.2 0.00 0.00 0.00 64 1007.7
20260505124205 69 292 1.7 4.3 0.00 0.00 0.00 62 1007.5
20260505123704 69 232 1.7 6.1 0.00 0.00 0.00 62 1007.4
20260505123204 69 231 2.6 6.1 0.00 0.00 0.00 61 1007.4
20260505122205 69 304 2.6 5.2 0.00 0.00 0.00 61 1007.5
20260505121705 69 244 1.7 5.2 0.00 0.00 0.00 61 1007.5
20260505121205 69 326 0.9 5.2 0.00 0.00 0.00 62 1007.4
20260505120705 68 325 1.7 5.2 0.00 0.00 0.00 63 1007.4
20260505120205 68 325 2.6 5.2 0.00 0.00 0.00 63 1007.5
20260505115704 68 325 1.7 4.3 0.00 0.00 0.00 63 1007.5
20260505115205 68 314 0.9 5.2 0.00 0.00 0.00 64 1007.4
20260505114705 68 314 0.9 5.2 0.00 0.00 0.00 64 1007.4
20260505114205 69 315 2.6 6.1 0.00 0.00 0.00 65 1007.4
20260505113723 69 300 2.6 7.0 0.00 0.00 0.00 63 1007.4
20260505113205 69 319 3.5 7.0 0.00 0.00 0.00 63 1007.4
20260505112705 69 315 2.6 6.1 0.00 0.00 0.00 64 1007.4
20260505112205 69 315 1.7 4.3 0.00 0.00 0.00 64 1007.4
20260505111222 69 331 2.6 9.6 0.00 0.00 0.00 63 1007.5
20260505110705 69 318 2.6 9.6 0.00 0.00 0.00 63 1007.5
20260505102205 69 252 2.6 7.8 0.00 0.00 0.00 64 1008.0
20260505101705 69 342 2.6 7.8 0.00 0.00 0.00 64 1008.0
20260505101205 69 320 2.6 7.0 0.00 0.00 0.00 64 1008.1
20260505100205 68 321 2.6 7.0 0.00 0.00 0.00 66 1008.1
20260505095705 68 320 2.6 7.0 0.00 0.00 0.00 66 1008.2
20260505095205 68 325 3.5 7.0 0.00 0.00 0.00 64 1008.2
20260505094704 69 254 2.6 7.0 0.00 0.00 0.00 64 1008.2
20260505094205 69 323 1.7 7.8 0.00 0.00 0.00 64 1008.3
20260505092705 68 312 2.6 5.2 0.00 0.00 0.00 67 1008.4
20260505092205 67 259 1.7 5.2 0.00 0.00 0.00 65 1008.4
20260505091705 67 283 1.7 3.5 0.00 0.00 0.00 66 1008.5
20260505091205 67 333 0.9 5.2 0.00 0.00 0.00 67 1008.7
20260505090705 67 334 1.7 6.1 0.00 0.00 0.00 67 1008.7
20260505090205 67 334 2.6 7.8 0.00 0.00 0.00 65 1008.7
20260505085704 68 299 2.6 7.8 0.00 0.00 0.00 65 1008.7
20260505085204 69 328 2.6 5.2 0.00 0.00 0.00 66 1008.8
20260505084716 68 266 1.7 5.2 0.00 0.00 0.00 69 1008.8
20260505083705 66 251 0.9 2.6 0.00 0.00 0.00 69 1008.8
20260505083205 66 251 0.0 4.3 0.00 0.00 0.00 70 1008.8
20260505082705 65 251 0.9 4.3 0.00 0.00 0.00 71 1008.8
20260505082205 64 251 1.7 4.3 0.00 0.00 0.00 71 1009.0
20260505081704 64 250 1.7 4.3 0.00 0.00 0.00 71 1009.0
20260505081205 64 292 0.9 4.3 0.00 0.00 0.00 71 1009.0
20260505080705 64 267 1.7 4.3 0.00 0.00 0.00 70 1009.1
20260505075705 64 319 1.7 4.3 0.00 0.00 0.00 73 1009.1
20260505075205 63 317 1.7 4.3 0.00 0.00 0.00 72 1009.1
20260505074704 63 318 0.9 2.6 0.00 0.00 0.00 73 1009.1
20260505074205 63 311 0.0 2.6 0.00 0.00 0.00 74 1009.1
20260505073704 63 311 0.9 4.3 0.00 0.00 0.00 73 1009.1
20260505073205 63 311 0.9 4.3 0.00 0.00 0.00 74 1009.1
20260505072704 62 311 1.7 4.3 0.00 0.00 0.00 74 1009.2
20260505072204 62 311 1.7 4.3 0.00 0.00 0.00 74 1009.2
20260505071705 62 311 1.7 4.3 0.00 0.00 0.00 74 1009.2
20260505071205 62 311 1.7 4.3 0.00 0.00 0.00 73 1009.3
20260505070705 62 311 1.7 3.5 0.00 0.00 0.00 74 1009.3
20260505070205 61 311 0.9 2.6 0.00 0.00 0.00 76 1009.4
20260505065705 60 311 0.0 2.6 0.00 0.00 0.00 77 1009.6
20260505065205 60 311 0.9 2.6 0.00 0.00 0.00 78 1009.6
20260505064205 59 311 0.0 0.9 0.00 0.00 0.00 78 1009.6
20260505063705 59 311 0.0 0.0 0.00 0.00 0.00 80 1009.6
20260505063204 58 311 0.0 0.0 0.00 0.00 0.00 80 1009.6
20260505062205 58 311 0.0 0.0 0.00 0.00 0.00 81 1009.7
20260505061705 58 311 0.0 0.0 0.00 0.00 0.00 82 1009.7
20260505061205 58 311 0.0 0.0 0.00 0.00 0.00 81 1009.8
20260505060705 58 311 0.0 0.0 0.00 0.00 0.00 80 1009.8
20260505060205 57 311 0.0 0.0 0.00 0.00 0.00 80 1009.8
20260505055705 57 311 0.0 0.0 0.00 0.00 0.00 80 1009.8
20260505055204 57 311 0.0 0.0 0.00 0.00 0.00 81 1009.8
20260505054704 57 311 0.0 0.0 0.00 0.00 0.00 82 1009.7
20260505054205 57 311 0.0 0.0 0.00 0.00 0.00 81 1009.8
20260505053705 56 311 0.0 0.0 0.00 0.00 0.00 82 1009.8
20260505053205 56 311 0.0 0.0 0.00 0.00 0.00 82 1009.9
20260505052205 56 311 0.0 0.0 0.00 0.00 0.00 83 1010.0
20260505051205 55 311 0.0 0.0 0.00 0.00 0.00 83 1010.0
20260505050705 55 311 0.0 0.0 0.00 0.00 0.00 83 1009.9